Location: Vesunti
(61.5000°N, 22.8333°E)
Time: 03:58:35
(UTC+00:00)

Cosmos 1340 Rocket - Pass Details

Date: 17 February 2020
Orbit: 528 x 560 km, 81.2° (Epoch: 09 April)

Event Time Altitude Azimuth Distance (km) Brightness Sun altitude
Exits shadow 02:21:41 37° 21° (NNE) 876 4.1 -27.1°
Drops below altitude 10° 02:24:11 10° 19° (NNE) 1,839 6.0 -26.8°
Sets 02:26:22 0° 19° (NNE) 2,742 7.0 -26.6°
